QPF
0.06 0.11 0.22 0.25 0.16 0.10 0.09 0.09 0.09 0.10 0.08 0.09 0.08 0.07 0.08 0.07 0.05 0.04 0.03 0.03 0.03 0.03 0.03 0.03 0.04 0.04 0.04 0.02 0.02 0.03 0.02 0.02 0.03 0.03 0.03 0.04 0.04 0.05 0.07 0.07 0.04 0.03 0.04
0.06 0.12 0.22 0.26 0.18 0.10 0.09 0.08 0.10 0.13 0.12 0.11 0.09 0.09 0.08 0.06 0.04 0.03 0.02 0.02 0.02 0.03 0.04 0.04 0.03 0.03 0.02 0.02 0.02 0.03 0.03 0.03 0.03 0.02 0.02 0.02 0.03 0.06 0.07 0.08 0.05 0.03 0.04
0.08 0.11 0.17 0.20 0.14 0.09 0.09 0.10 0.10 0.13 0.12 0.10 0.08 0.08 0.08 0.06 0.05 0.03 0.01 0.02 0.02 0.02 0.03 0.04 0.03 0.02 0.02 0.02 0.02 0.02 0.03 0.03 0.03 0.02 0.01 0.01 0.02 0.08 0.15 0.11 0.07 0.05 0.04
0.08 0.09 0.13 0.15 0.11 0.08 0.07 0.08 0.07 0.08 0.08 0.07 0.05 0.08 0.08 0.06 0.05 0.04 0.03 0.02 0.02 0.03 0.03 0.03 0.04 0.03 0.02 0.02 0.02 0.03 0.04 0.05 0.05 0.02 0.00 0.00 0.02 0.07 0.09 0.05 0.05 0.05 0.05
0.08 0.09 0.10 0.11 0.12 0.10 0.06 0.06 0.05 0.04 0.04 0.05 0.05 0.07 0.07 0.05 0.02 0.04 0.05 0.03 0.03 0.03 0.04 0.05 0.04 0.03 0.02 0.01 0.02 0.03 0.05 0.06 0.06 0.02 0.01 0.01 0.02 0.05 0.05 0.04 0.04 0.04 0.05
0.04 0.06 0.08 0.09 0.09 0.06 0.05 0.04 0.04 0.03 0.03 0.03 0.05 0.06 0.06 0.05 0.03 0.03 0.04 0.04 0.03 0.03 0.03 0.04 0.04 0.03 0.03 0.03 0.04 0.04 0.04 0.04 0.03 0.01 0.01 0.01 0.02 0.04 0.03 0.03 0.04 0.04 0.05
0.03 0.04 0.07 0.09 0.09 0.08 0.08 0.06 0.04 0.03 0.03 0.03 0.03 0.04 0.05 0.04 0.04 0.04 0.04 0.05 0.04 0.03 0.03 0.04 0.04 0.03 0.03 0.04 0.05 0.04 0.03 0.03 0.01 0.01 0.02 0.02 0.02 0.03 0.03 0.03 0.05 0.05 0.05
0.04 0.04 0.08 0.09 0.09 0.08 0.07 0.06 0.03 0.02 0.02 0.03 0.04 0.04 0.05 0.05 0.05 0.04 0.04 0.05 0.05 0.05 0.04 0.03 0.04 0.04 0.03 0.04 0.05 0.04 0.04 0.02 0.01 0.01 0.02 0.03 0.04 0.04 0.03 0.02 0.05 0.04 0.04
0.03 0.03 0.05 0.04 0.03 0.04 0.05 0.05 0.04 0.03 0.03 0.04 0.05 0.07 0.08 0.06 0.05 0.04 0.04 0.04 0.03 0.03 0.02 0.03 0.04 0.05 0.03 0.04 0.05 0.04 0.04 0.03 0.01 0.01 0.01 0.02 0.05 0.05 0.03 0.03 0.04 0.04 0.05
0.03 0.03 0.02 0.02 0.02 0.02 0.02 0.03 0.04 0.04 0.04 0.03 0.04 0.05 0.07 0.05 0.05 0.04 0.03 0.03 0.02 0.02 0.03 0.03 0.03 0.04 0.04 0.03 0.03 0.02 0.02 0.04 0.04 0.02 0.02 0.04 0.08 0.07 0.05 0.05 0.05 0.05 0.05
0.02 0.02 0.02 0.01 0.01 0.00 0.00 0.01 0.02 0.01 0.01 0.01 0.01 0.02 0.02 0.02 0.02 0.02 0.02 0.03 0.03 0.03 0.04 0.05 0.04 0.04 0.03 0.03 0.03 0.02 0.03 0.05 0.04 0.02 0.02 0.05 0.08 0.08 0.07 0.06 0.06 0.06 0.05
0.01 0.01 0.01 0.01 0.00 0.00 0.00 0.01 0.00 0.00 0.00 0.00 0.00 0.00 0.00 0.01 0.01 0.01 0.01 0.02 0.02 0.02 0.02 0.04 0.04 0.02 0.01 0.01 0.02 0.03 0.04 0.04 0.03 0.01 0.03 0.05 0.07 0.05 0.05 0.05 0.05 0.06 0.05
0.01 0.01 0.00 0.01 0.02 0.01 0.00 0.00 0.00 0.00 0.00 0.00 0.00 0.00 0.00 0.00 0.00 0.00 0.00 0.00 0.00 0.00 0.00 0.01 0.01 0.01 0.01 0.01 0.02 0.04 0.04 0.03 0.02 0.01 0.04 0.06 0.07 0.06 0.06 0.06 0.05 0.05 0.05
0.01 0.01 0.00 0.00 0.01 0.01 0.00 0.00 0.00 0.00 0.00 0.00 0.00 0.00 0.00 0.00 0.00 0.00 0.00 0.00 0.00 0.00 0.00 0.01 0.01 0.02 0.02 0.01 0.01 0.03 0.03 0.02 0.03 0.03 0.05 0.09 0.10 0.09 0.09 0.07 0.06 0.05 0.06
0.01 0.01 0.00 0.00 0.00 0.00 0.00 0.00 0.00 0.00 0.00 0.00 0.00 0.00 0.00 0.00 0.00 0.00 0.00 0.00 0.00 0.00 0.01 0.01 0.02 0.03 0.02 0.01 0.01 0.01 0.02 0.02 0.03 0.05 0.06 0.11 0.12 0.12 0.11 0.08 0.06 0.05 0.06
0.01 0.00 0.00 0.00 0.00 0.00 0.01 0.01 0.00 0.00 0.00 0.00 0.00 0.00 0.00 0.00 0.00 0.00 0.00 0.00 0.00 0.01 0.01 0.01 0.02 0.02 0.01 0.01 0.01 0.01 0.02 0.02 0.04 0.04 0.04 0.07 0.08 0.08 0.07 0.07 0.06 0.07 0.07
0.01 0.00 0.00 0.00 0.00 0.00 0.00 0.01 0.01 0.01 0.00 0.00 0.00 0.00 0.00 0.00 0.00 0.00 0.00 0.00 0.00 0.00 0.00 0.01 0.01 0.01 0.00 0.00 0.01 0.01 0.02 0.02 0.05 0.03 0.03 0.04 0.04 0.05 0.05 0.06 0.06 0.06 0.07
0.01 0.00 0.00 0.00 0.00 0.00 0.00 0.01 0.02 0.02 0.00 0.00 0.00 0.00 0.00 0.00 0.00 0.00 0.00 0.00 0.00 0.00 0.00 0.00 0.00 0.00 0.00 0.00 0.01 0.01 0.02 0.01 0.04 0.03 0.02 0.02 0.02 0.02 0.03 0.04 0.04 0.05 0.07
0.01 0.00 0.00 0.00 0.00 0.00 0.00 0.00 0.01 0.02 0.01 0.00 0.00 0.00 0.00 0.00 0.00 0.00 0.00 0.00 0.00 0.00 0.00 0.00 0.01 0.01 0.01 0.01 0.01 0.02 0.02 0.02 0.02 0.02 0.02 0.01 0.01 0.02 0.02 0.02 0.02 0.04 0.07
0.01 0.00 0.00 0.00 0.00 0.00 0.00 0.00 0.00 0.00 0.01 0.00 0.00 0.01 0.01 0.00 0.00 0.00 0.00 0.00 0.00 0.00 0.00 0.00 0.01 0.01 0.01 0.01 0.01 0.01 0.02 0.02 0.02 0.02 0.02 0.02 0.02 0.02 0.02 0.02 0.02 0.02 0.04
0.01 0.00 0.00 0.00 0.00 0.00 0.00 0.00 0.00 0.00 0.01 0.00 0.01 0.01 0.00 0.00 0.00 0.00 0.00 0.00 0.00 0.00 0.00 0.01 0.01 0.02 0.02 0.02 0.01 0.01 0.01 0.01 0.01 0.02 0.03 0.03 0.02 0.02 0.02 0.02 0.02 0.02 0.03
0.01 0.00 0.00 0.00 0.00 0.00 0.00 0.00 0.01 0.01 0.01 0.01 0.01 0.01 0.01 0.01 0.00 0.00 0.00 0.00 0.00 0.00 0.00 0.01 0.01 0.01 0.02 0.02 0.01 0.01 0.01 0.01 0.01 0.01 0.01 0.01 0.02 0.02 0.02 0.03 0.03 0.04 0.03
0.01 0.01 0.01 0.01 0.00 0.00 0.00 0.00 0.02 0.02 0.02 0.01 0.01 0.02 0.02 0.01 0.00 0.00 0.00 0.00 0.00 0.00 0.00 0.00 0.01 0.01 0.01 0.01 0.01 0.00 0.00 0.00 0.00 0.00 0.01 0.01 0.01 0.01 0.02 0.04 0.03 0.05 0.04
0.01 0.01 0.00 0.00 0.00 0.00 0.00 0.00 0.01 0.01 0.02 0.02 0.01 0.01 0.02 0.01 0.00 0.00 0.00 0.00 0.00 0.00 0.00 0.00 0.00 0.01 0.01 0.01 0.01 0.00 0.00 0.00 0.00 0.00 0.00 0.00 0.00 0.01 0.02 0.03 0.02 0.03 0.06
0.01 0.01 0.01 0.01 0.00 0.00 0.00 0.00 0.00 0.01 0.01 0.01 0.01 0.01 0.01 0.02 0.02 0.01 0.00 0.00 0.00 0.00 0.00 0.00 0.00 0.01 0.01 0.01 0.01 0.00 0.00 0.00 0.00 0.00 0.00 0.00 0.00 0.01 0.01 0.01 0.01 0.02 0.05
0.02 0.01 0.02 0.02 0.01 0.00 0.00 0.00 0.00 0.00 0.00 0.00 0.00 0.00 0.00 0.01 0.02 0.02 0.01 0.01 0.00 0.00 0.00 0.00 0.00 0.00 0.01 0.00 0.00 0.00 0.00 0.01 0.00 0.00 0.00 0.00 0.00 0.00 0.00 0.00 0.01 0.02 0.02
MSLP
1016.14 1015.56 1015.02 1014.61 1014.37 1014.30 1014.38 1014.54 1014.72 1014.86 1014.92 1014.92 1014.87 1014.82 1014.80 1014.86 1014.98 1015.15 1015.33 1015.47 1015.54 1015.53 1015.45 1015.33 1015.20 1015.10 1015.03 1015.00 1014.99 1014.97 1014.92 1014.83 1014.69 1014.54 1014.39 1014.26 1014.16 1014.08 1014.01 1013.94 1013.85 1013.74 1013.63
1016.53 1015.95 1015.42 1015.01 1014.78 1014.71 1014.78 1014.93 1015.10 1015.23 1015.29 1015.29 1015.25 1015.20 1015.20 1015.27 1015.39 1015.56 1015.73 1015.86 1015.92 1015.90 1015.81 1015.67 1015.52 1015.38 1015.27 1015.20 1015.14 1015.07 1014.99 1014.88 1014.74 1014.60 1014.47 1014.37 1014.29 1014.23 1014.19 1014.13 1014.05 1013.95 1013.85
1016.84 1016.28 1015.78 1015.39 1015.18 1015.12 1015.20 1015.35 1015.52 1015.65 1015.71 1015.70 1015.66 1015.62 1015.61 1015.66 1015.76 1015.90 1016.04 1016.14 1016.17 1016.14 1016.04 1015.90 1015.74 1015.59 1015.47 1015.37 1015.29 1015.20 1015.10 1014.99 1014.86 1014.73 1014.62 1014.54 1014.48 1014.43 1014.39 1014.33 1014.26 1014.17 1014.09
1017.06 1016.55 1016.09 1015.75 1015.57 1015.54 1015.63 1015.78 1015.94 1016.07 1016.12 1016.11 1016.06 1016.01 1015.98 1015.99 1016.05 1016.13 1016.22 1016.28 1016.30 1016.25 1016.15 1016.02 1015.88 1015.75 1015.64 1015.55 1015.47 1015.39 1015.29 1015.18 1015.07 1014.96 1014.87 1014.79 1014.74 1014.69 1014.65 1014.58 1014.51 1014.42 1014.36
1017.21 1016.76 1016.37 1016.09 1015.95 1015.95 1016.04 1016.19 1016.34 1016.44 1016.48 1016.46 1016.40 1016.32 1016.26 1016.23 1016.24 1016.27 1016.31 1016.33 1016.32 1016.27 1016.19 1016.09 1015.98 1015.89 1015.82 1015.76 1015.70 1015.64 1015.57 1015.48 1015.39 1015.29 1015.21 1015.14 1015.08 1015.02 1014.95 1014.88 1014.79 1014.72 1014.66
1017.32 1016.95 1016.64 1016.43 1016.34 1016.35 1016.44 1016.57 1016.68 1016.75 1016.76 1016.71 1016.63 1016.53 1016.45 1016.38 1016.35 1016.34 1016.33 1016.32 1016.29 1016.25 1016.19 1016.12 1016.07 1016.03 1016.00 1015.98 1015.96 1015.94 1015.89 1015.83 1015.76 1015.68 1015.61 1015.53 1015.46 1015.38 1015.30 1015.20 1015.11 1015.03 1014.99
1017.42 1017.14 1016.91 1016.77 1016.72 1016.74 1016.81 1016.89 1016.95 1016.96 1016.93 1016.86 1016.76 1016.65 1016.55 1016.47 1016.42 1016.37 1016.34 1016.31 1016.27 1016.23 1016.19 1016.16 1016.15 1016.15 1016.17 1016.19 1016.21 1016.22 1016.20 1016.17 1016.12 1016.06 1015.99 1015.92 1015.84 1015.74 1015.64 1015.53 1015.43 1015.35 1015.32
1017.54 1017.35 1017.22 1017.14 1017.11 1017.12 1017.15 1017.16 1017.15 1017.10 1017.03 1016.93 1016.82 1016.71 1016.62 1016.54 1016.48 1016.43 1016.38 1016.33 1016.28 1016.24 1016.21 1016.20 1016.21 1016.24 1016.29 1016.34 1016.38 1016.42 1016.43 1016.42 1016.39 1016.35 1016.30 1016.24 1016.16 1016.06 1015.95 1015.84 1015.74 1015.66 1015.64
1017.71 1017.61 1017.55 1017.52 1017.51 1017.49 1017.46 1017.40 1017.31 1017.20 1017.08 1016.96 1016.85 1016.76 1016.69 1016.64 1016.59 1016.54 1016.49 1016.42 1016.35 1016.29 1016.24 1016.22 1016.23 1016.27 1016.32 1016.38 1016.44 1016.49 1016.52 1016.53 1016.53 1016.51 1016.48 1016.44 1016.38 1016.30 1016.20 1016.10 1016.01 1015.95 1015.93
1017.93 1017.91 1017.91 1017.92 1017.92 1017.87 1017.78 1017.64 1017.48 1017.31 1017.15 1017.02 1016.92 1016.86 1016.83 1016.80 1016.77 1016.73 1016.65 1016.56 1016.46 1016.36 1016.28 1016.23 1016.21 1016.23 1016.27 1016.32 1016.38 1016.43 1016.47 1016.50 1016.52 1016.53 1016.54 1016.53 1016.50 1016.45 1016.38 1016.31 1016.25 1016.20 1016.20
1018.20 1018.25 1018.30 1018.34 1018.33 1018.25 1018.10 1017.91 1017.69 1017.47 1017.29 1017.16 1017.08 1017.05 1017.05 1017.05 1017.03 1016.98 1016.88 1016.76 1016.61 1016.46 1016.33 1016.23 1016.17 1016.15 1016.16 1016.20 1016.24 1016.29 1016.34 1016.39 1016.43 1016.47 1016.50 1016.53 1016.54 1016.54 1016.52 1016.48 1016.45 1016.44 1016.46
1018.51 1018.60 1018.70 1018.75 1018.73 1018.63 1018.45 1018.22 1017.96 1017.72 1017.53 1017.40 1017.34 1017.34 1017.36 1017.37 1017.35 1017.29 1017.16 1016.99 1016.78 1016.58 1016.39 1016.24 1016.13 1016.08 1016.07 1016.09 1016.13 1016.17 1016.23 1016.28 1016.34 1016.40 1016.46 1016.52 1016.57 1016.60 1016.63 1016.64 1016.65 1016.66 1016.70
1018.83 1018.96 1019.08 1019.14 1019.13 1019.02 1018.82 1018.57 1018.30 1018.06 1017.87 1017.76 1017.71 1017.72 1017.75 1017.76 1017.72 1017.63 1017.46 1017.24 1016.98 1016.73 1016.49 1016.30 1016.17 1016.09 1016.07 1016.09 1016.13 1016.18 1016.24 1016.30 1016.36 1016.43 1016.50 1016.57 1016.64 1016.70 1016.76 1016.80 1016.85 1016.90 1016.96
1019.15 1019.30 1019.43 1019.51 1019.50 1019.39 1019.20 1018.96 1018.71 1018.48 1018.31 1018.20 1018.17 1018.17 1018.18 1018.17 1018.11 1017.98 1017.77 1017.51 1017.22 1016.93 1016.67 1016.46 1016.32 1016.25 1016.24 1016.27 1016.33 1016.39 1016.46 1016.52 1016.58 1016.63 1016.69 1016.75 1016.81 1016.88 1016.94 1017.01 1017.08 1017.15 1017.23
1019.47 1019.62 1019.75 1019.83 1019.83 1019.75 1019.58 1019.38 1019.15 1018.96 1018.80 1018.71 1018.66 1018.65 1018.64 1018.59 1018.49 1018.33 1018.09 1017.81 1017.50 1017.20 1016.94 1016.75 1016.63 1016.59 1016.61 1016.67 1016.76 1016.85 1016.93 1016.99 1017.03 1017.06 1017.07 1017.09 1017.12 1017.16 1017.21 1017.28 1017.35 1017.43 1017.52
1019.78 1019.92 1020.04 1020.12 1020.13 1020.07 1019.95 1019.79 1019.62 1019.46 1019.33 1019.24 1019.17 1019.13 1019.08 1018.99 1018.86 1018.66 1018.41 1018.12 1017.83 1017.55 1017.32 1017.16 1017.09 1017.09 1017.16 1017.28 1017.41 1017.53 1017.63 1017.69 1017.71 1017.69 1017.66 1017.62 1017.59 1017.58 1017.59 1017.63 1017.69 1017.76 1017.84
1020.09 1020.21 1020.31 1020.38 1020.41 1020.38 1020.31 1020.21 1020.09 1019.97 1019.86 1019.76 1019.67 1019.59 1019.49 1019.36 1019.19 1018.98 1018.74 1018.47 1018.20 1017.96 1017.78 1017.67 1017.65 1017.71 1017.84 1018.01 1018.19 1018.35 1018.47 1018.53 1018.54 1018.49 1018.41 1018.30 1018.21 1018.13 1018.09 1018.08 1018.11 1018.16 1018.23
1020.42 1020.50 1020.57 1020.63 1020.67 1020.68 1020.66 1020.62 1020.55 1020.47 1020.38 1020.27 1020.16 1020.03 1019.88 1019.71 1019.52 1019.31 1019.07 1018.83 1018.61 1018.42 1018.29 1018.23 1018.26 1018.37 1018.54 1018.76 1018.99 1019.19 1019.35 1019.44 1019.44 1019.38 1019.26 1019.10 1018.95 1018.81 1018.71 1018.65 1018.64 1018.66 1018.70
1020.77 1020.80 1020.84 1020.88 1020.92 1020.97 1021.01 1021.03 1021.02 1020.98 1020.90 1020.78 1020.63 1020.46 1020.28 1020.08 1019.87 1019.65 1019.44 1019.24 1019.06 1018.91 1018.82 1018.79 1018.85 1018.99 1019.20 1019.45 1019.72 1019.97 1020.18 1020.30 1020.34 1020.29 1020.16 1019.99 1019.79 1019.61 1019.46 1019.35 1019.30 1019.28 1019.29
1021.13 1021.11 1021.11 1021.14 1021.20 1021.28 1021.37 1021.45 1021.49 1021.49 1021.43 1021.30 1021.13 1020.93 1020.70 1020.48 1020.26 1020.05 1019.86 1019.69 1019.54 1019.42 1019.35 1019.33 1019.39 1019.53 1019.75 1020.02 1020.33 1020.63 1020.89 1021.08 1021.18 1021.18 1021.09 1020.93 1020.73 1020.53 1020.35 1020.20 1020.11 1020.05 1020.02
1021.48 1021.43 1021.40 1021.41 1021.48 1021.59 1021.73 1021.87 1021.97 1022.01 1021.97 1021.85 1021.66 1021.43 1021.19 1020.94 1020.72 1020.52 1020.35 1020.20 1020.06 1019.95 1019.88 1019.85 1019.88 1020.00 1020.20 1020.48 1020.81 1021.16 1021.49 1021.76 1021.95 1022.03 1022.01 1021.90 1021.74 1021.55 1021.36 1021.20 1021.07 1020.97 1020.90
1021.82 1021.74 1021.68 1021.68 1021.75 1021.90 1022.09 1022.29 1022.45 1022.54 1022.53 1022.42 1022.24 1022.00 1021.74 1021.49 1021.27 1021.08 1020.92 1020.78 1020.65 1020.53 1020.43 1020.36 1020.36 1020.43 1020.60 1020.87 1021.21 1021.60 1022.00 1022.37 1022.66 1022.84 1022.92 1022.90 1022.81 1022.65 1022.48 1022.31 1022.15 1022.02 1021.91
1022.11 1022.01 1021.93 1021.93 1022.02 1022.20 1022.43 1022.69 1022.91 1023.05 1023.09 1023.02 1022.85 1022.62 1022.37 1022.12 1021.91 1021.73 1021.58 1021.44 1021.31 1021.17 1021.04 1020.93 1020.87 1020.90 1021.02 1021.27 1021.61 1022.03 1022.49 1022.94 1023.33 1023.64 1023.83 1023.91 1023.89 1023.80 1023.65 1023.49 1023.32 1023.15 1022.99
1022.33 1022.23 1022.15 1022.14 1022.24 1022.45 1022.73 1023.04 1023.32 1023.53 1023.62 1023.59 1023.47 1023.27 1023.04 1022.81 1022.62 1022.45 1022.31 1022.18 1022.04 1021.89 1021.73 1021.58 1021.48 1021.45 1021.54 1021.75 1022.09 1022.52 1023.02 1023.54 1024.02 1024.42 1024.71 1024.89 1024.95 1024.92 1024.82 1024.66 1024.48 1024.29 1024.10
1022.48 1022.39 1022.31 1022.31 1022.42 1022.65 1022.97 1023.33 1023.67 1023.94 1024.10 1024.13 1024.06 1023.91 1023.72 1023.53 1023.35 1023.21 1023.09 1022.97 1022.84 1022.68 1022.51 1022.34 1022.20 1022.14 1022.19 1022.37 1022.69 1023.12 1023.63 1024.18 1024.71 1025.18 1025.55 1025.80 1025.94 1025.96 1025.90 1025.77 1025.58 1025.37 1025.14
1022.58 1022.51 1022.44 1022.44 1022.56 1022.81 1023.15 1023.55 1023.94 1024.27 1024.50 1024.60 1024.59 1024.50 1024.36 1024.21 1024.08 1023.96 1023.87 1023.77 1023.66 1023.52 1023.36 1023.19 1023.05 1022.97 1023.00 1023.15 1023.43 1023.84 1024.34 1024.88 1025.42 1025.91 1026.32 1026.62 1026.81 1026.88 1026.85 1026.74 1026.57 1026.34 1026.09
Thickness
5762 5765 5767 5768 5768 5768 5768 5767 5767 5766 5765 5764 5763 5762 5761 5761 5760 5760 5760 5759 5758 5758 5757 5757 5757 5757 5758 5758 5758 5758 5758 5758 5759 5759 5760 5760 5761 5762 5762 5763 5763 5764 5764
5763 5765 5766 5766 5766 5766 5766 5765 5765 5764 5763 5761 5760 5759 5759 5758 5758 5757 5757 5757 5756 5755 5755 5755 5755 5755 5755 5755 5755 5755 5756 5756 5757 5757 5757 5758 5759 5760 5760 5760 5761 5762 5762
5763 5764 5764 5764 5764 5764 5763 5763 5762 5761 5760 5759 5758 5757 5756 5756 5756 5755 5755 5754 5754 5753 5753 5752 5752 5752 5752 5753 5753 5753 5753 5754 5754 5754 5755 5756 5757 5759 5758 5758 5759 5760 5760
5761 5762 5762 5762 5761 5761 5761 5760 5759 5758 5758 5757 5756 5755 5754 5754 5753 5753 5752 5752 5751 5750 5750 5749 5750 5750 5750 5750 5750 5750 5751 5751 5751 5751 5752 5753 5754 5755 5756 5756 5757 5757 5758
5759 5759 5759 5759 5759 5759 5758 5758 5757 5756 5755 5755 5754 5753 5753 5752 5751 5751 5750 5750 5749 5748 5747 5747 5746 5747 5747 5747 5748 5748 5748 5748 5748 5748 5749 5750 5751 5752 5753 5754 5754 5755 5756
5756 5756 5756 5757 5757 5756 5755 5755 5755 5754 5753 5752 5752 5751 5750 5750 5749 5749 5748 5747 5747 5746 5745 5745 5744 5744 5744 5745 5745 5745 5745 5745 5745 5745 5746 5747 5748 5749 5750 5751 5752 5752 5753
5753 5753 5754 5754 5754 5753 5752 5752 5752 5751 5751 5750 5750 5749 5748 5748 5747 5747 5746 5745 5745 5745 5743 5743 5742 5742 5742 5742 5742 5742 5742 5742 5742 5742 5743 5744 5745 5747 5748 5748 5749 5749 5750
5751 5750 5750 5751 5751 5750 5750 5749 5749 5749 5748 5748 5747 5747 5746 5746 5745 5745 5744 5743 5743 5742 5741 5741 5741 5740 5740 5740 5740 5740 5740 5739 5739 5740 5740 5741 5743 5744 5745 5745 5746 5747 5747
5748 5747 5747 5747 5747 5747 5747 5746 5746 5746 5746 5746 5745 5744 5744 5743 5743 5743 5742 5742 5741 5740 5740 5739 5739 5738 5738 5738 5738 5737 5737 5736 5736 5737 5737 5738 5739 5740 5741 5742 5742 5743 5744
5744 5744 5743 5743 5743 5743 5743 5743 5744 5744 5744 5743 5743 5742 5741 5741 5741 5740 5740 5739 5739 5739 5738 5737 5737 5736 5736 5735 5735 5734 5734 5733 5733 5733 5734 5735 5736 5737 5738 5739 5739 5740 5741
5739 5740 5740 5740 5740 5740 5740 5740 5740 5740 5740 5740 5740 5739 5739 5738 5738 5738 5738 5738 5737 5737 5736 5736 5735 5734 5733 5732 5732 5731 5731 5730 5730 5730 5730 5732 5733 5734 5735 5735 5736 5737 5737
5734 5736 5737 5737 5737 5737 5737 5737 5737 5737 5737 5737 5737 5736 5736 5735 5735 5735 5735 5735 5735 5735 5734 5733 5732 5731 5731 5730 5729 5728 5727 5726 5727 5727 5727 5729 5729 5730 5731 5731 5732 5733 5734
5733 5734 5735 5734 5734 5734 5734 5734 5734 5734 5735 5734 5734 5734 5733 5733 5733 5733 5733 5733 5732 5732 5732 5731 5730 5729 5728 5727 5725 5725 5724 5724 5723 5723 5724 5725 5727 5727 5727 5728 5729 5729 5730
5730 5731 5732 5732 5732 5732 5732 5731 5731 5732 5732 5732 5732 5731 5731 5731 5730 5730 5730 5730 5729 5729 5729 5728 5727 5726 5725 5724 5723 5722 5721 5720 5720 5720 5721 5723 5724 5723 5723 5724 5724 5725 5726
5728 5729 5729 5730 5730 5730 5730 5729 5729 5729 5729 5729 5729 5729 5729 5728 5728 5727 5727 5727 5726 5726 5726 5725 5724 5723 5722 5721 5720 5718 5717 5716 5716 5716 5716 5717 5719 5719 5719 5719 5720 5721 5722
5725 5726 5727 5727 5728 5728 5727 5727 5726 5726 5726 5727 5727 5727 5726 5726 5725 5725 5724 5724 5724 5724 5723 5722 5721 5720 5718 5717 5715 5714 5713 5713 5712 5712 5712 5712 5713 5713 5714 5715 5716 5717 5718
5723 5724 5725 5725 5725 5725 5725 5724 5724 5724 5724 5724 5724 5724 5724 5723 5723 5722 5722 5721 5721 5721 5721 5720 5718 5717 5715 5713 5711 5710 5709 5709 5708 5708 5708 5708 5708 5708 5709 5710 5711 5712 5713
5722 5722 5723 5724 5723 5722 5722 5722 5721 5721 5721 5721 5722 5721 5721 5721 5721 5720 5719 5719 5719 5719 5718 5717 5715 5713 5711 5709 5707 5706 5705 5705 5704 5704 5704 5704 5704 5704 5704 5705 5705 5706 5708
5721 5721 5720 5720 5720 5719 5719 5719 5719 5718 5718 5718 5719 5719 5719 5719 5718 5718 5717 5716 5717 5716 5715 5715 5712 5710 5707 5705 5703 5701 5701 5700 5700 5700 5699 5699 5699 5699 5699 5699 5700 5701 5702
5719 5719 5718 5717 5717 5717 5717 5716 5715 5715 5715 5715 5715 5716 5716 5716 5715 5715 5714 5714 5714 5713 5712 5711 5708 5706 5704 5702 5701 5697 5696 5696 5696 5695 5695 5694 5694 5694 5694 5694 5695 5695 5696
5716 5716 5715 5714 5714 5714 5713 5712 5710 5709 5710 5711 5712 5712 5713 5713 5713 5712 5711 5711 5710 5709 5708 5707 5705 5702 5699 5699 5696 5692 5691 5691 5691 5690 5690 5690 5690 5689 5689 5689 5689 5690 5690
5714 5714 5713 5712 5712 5712 5712 5711 5709 5708 5707 5707 5708 5709 5709 5710 5709 5709 5708 5707 5707 5706 5704 5703 5702 5699 5696 5695 5693 5688 5683 5683 5684 5685 5685 5685 5684 5685 5685 5684 5684 5685 5685
5712 5712 5713 5711 5711 5710 5710 5709 5707 5706 5704 5704 5704 5704 5705 5706 5706 5705 5705 5704 5703 5703 5701 5700 5699 5697 5693 5691 5691 5688 5681 5676 5676 5678 5678 5679 5679 5679 5679 5680 5679 5680 5679
5713 5712 5711 5710 5709 5709 5708 5707 5705 5702 5699 5700 5700 5701 5701 5702 5702 5702 5702 5701 5700 5699 5698 5697 5696 5695 5693 5689 5688 5687 5685 5682 5676 5671 5673 5674 5674 5674 5674 5675 5674 5675 5674
5712 5711 5709 5708 5707 5707 5706 5706 5704 5701 5699 5698 5698 5698 5698 5698 5698 5699 5698 5697 5696 5696 5695 5694 5693 5692 5691 5688 5686 5684 5681 5679 5677 5671 5667 5668 5669 5669 5669 5669 5669 5669 5670
5710 5709 5707 5706 5705 5705 5704 5703 5702 5700 5698 5696 5695 5694 5694 5694 5694 5695 5694 5694 5693 5692 5691 5691 5690 5689 5688 5686 5684 5682 5680 5677 5673 5670 5665 5663 5662 5663 5664 5665 5665 5664 5665